sat.trackr.live / text

‹ back to catalog

STARLINK-4177

NORAD 53013 · 2022-076AD

PAYLOAD ACTIVE UNKNOWN

§ Identity

Operator
Country
US
Launch date
2022-07-07
Launch site
AFETR
Launch vehicle
Mass (kg)
RCS (m²)

Purposes: comms

External: N2YO · Heavens-Above · Gunter

§ Orbital elements

Epoch: 2026-05-25T03:14:26.199744Z

Period
95.44 min
Inclination
53.2136°
Eccentricity
0.0001184
Mean motion
15.08841740 rev/d
Perigee alt
538.9 km
Apogee alt
540.6 km
Semi-major
6,917.9 km
B*
3.8247e-5
RAAN
100.9432°
Arg perigee
77.0265°
Mean anomaly
283.0859°
Rev number
21,452

§ Raw data

STARLINK-41771 53013U 22076AD  26145.13502546  .00000321  00000+0  38247-4 0  99962 53013  53.2136 100.9432 0001184  77.0265 283.0859 15.08841740214521

JSON: /api/v1/satellites/53013 · /tle

For live sub-satellite position, see the globe view (requires WebGL).

§ Visibility from observer

Set your observer location to see the next 7 days of passes ≥ 10°. The values pass through the URL so the page stays shareable.

No JS? Fill the form by hand. The geolocation button needs JavaScript.